星链-31081 (STARLINK-31081 )

导读

STARLINK-31081是美国太空探索技术公司(SpaceX)星链互联网卫星星座中的一员,于2023年12月23日发射入轨。该卫星属于星链项目扩容卫星,旨在为全球提供高速低延迟宽带互联网服务,依托星链星座低轨布局优势,可覆盖偏远地区,也服务于商业、海事、航空及特殊领域通信场景。

Basic Information
目录编号:
58632
目录名称:
STARLINK-31081
国际标识:
2023-203Q
轨道中心:
EARTH
卫星名称:
星链-31081
卫星全名:
星链-31081 (STARLINK-31081 )
卫星状态:
在轨 (已飞行908 天)
发射日期:
2023-12-23 UTC
国别 :
美国 (US)
星等 :
--
Orbit Information
数据来源 国际轨道数据 AOE轨道数据
星历时间 2026-06-17T05:33:41+0800
1天前
查看轨道信息
2026-06-17T06:00:00+0800
1天前
查看轨道信息
半长轴 6861.172km 6861.18km
偏心率 0.0002185 0.0002019
轨道倾角 43.008° 43.003°
近地点辐角 274.755° 237.333°
升交点赤经 230.290° 230.189°
平近点角 85.305° 223.357°
近地点 481.535km 481.657km
远地点 484.535km 484.429km
周期 94.266分钟 94.267分钟
每日圈数 15.27585 15.275822
Detailed Information
固有亮度:
5
最大亮度:
0.3
卫星平台:
Starlink v2.0 mini
覆盖范围:
全球
运营商:
太空探索技术公司
运营商所在国:
美国
制造商(研发单位):
太空探索技术公司
制造商所在国:
美国
使用方式:
暂无
Satellite Introduction
星链(Starlink)计划是由太空探索技术公司(SpaceX)提出的一个巨型低轨卫星互联网星座项目,计划在2019年至2024年间在太空搭建由约1.2万颗卫星组成的“星链”网络,其中1584颗将部署在地球上空550千米处的近地轨道,并从2020年开始工作。该卫星仍在工作。
2D Orbit Map
3D Orbit Map
Orbit Altitude Analysis Chart
Orbit Inclination Analysis Chart
Orbit Comprehensive Analysis Chart
View Comprehensive Chart